FW5309 Weather Reports


time (UTC)temp
F
wind
direction
speed
knots
gust
knots
rain 1hr
in
rain 24hr
in
rain mn
in
humidity
%
barometer
mb
20260504081559 53 111 0.0 0.0 0.00 0.00 0.00 53 1016.5
20260504081501 53 111 0.0 0.0 0.00 0.00 0.00 53 1016.5
20260504050020 48 109 0.0 0.0 0.00 0.00 0.00 63 1016.7
20260504044540 48 109 0.0 0.0 0.00 0.00 0.00 61 1016.6
20260504043034 47 109 0.0 0.0 0.00 0.00 0.00 62 1016.6
20260504041553 47 109 0.0 0.0 0.00 0.00 0.00 62 1016.6
20260504040052 46 109 0.0 0.0 0.00 0.00 0.00 65 1016.6
20260504034602 46 109 0.0 0.0 0.00 0.00 0.00 64 1016.6
20260504033114 46 109 0.0 0.0 0.00 0.00 0.00 63 1016.6
20260504031519 47 109 0.0 0.0 0.00 0.00 0.00 61 1016.6
20260504030023 47 109 0.0 0.0 0.00 0.00 0.00 59 1016.6
20260504024604 48 109 0.0 0.0 0.00 0.00 0.00 58 1016.7
20260504023050 49 109 0.0 0.0 0.00 0.00 0.00 55 1016.6
20260504021508 49 109 0.0 0.0 0.00 0.00 0.00 52 1016.4
20260504020016 50 109 0.0 0.0 0.00 0.00 0.00 50 1016.2
20260504014539 50 115 0.0 0.0 0.00 0.00 0.00 49 1016.1
20260504013043 51 118 0.0 0.0 0.00 0.00 0.00 49 1016.1
20260504011505 52 118 0.0 0.0 0.00 0.00 0.00 45 1015.8
20260504010002 52 118 0.0 0.0 0.00 0.00 0.00 47 1015.6
20260504004522 54 118 0.0 0.0 0.00 0.00 0.00 45 1015.5
20260504003032 55 118 0.0 0.0 0.00 0.00 0.00 40 1015.5
20260504001615 56 118 0.0 0.0 0.00 0.00 0.00 38 1015.5
20260504001502 57 118 0.0 0.0 0.00 0.00 0.00 38 1015.5
20260504000058 59 118 0.0 0.0 0.00 0.00 0.00 33 1015.5
20260503234514 61 118 0.0 0.0 0.00 0.00 0.00 28 1015.5
20260503233013 64 118 0.0 0.0 0.00 0.00 0.00 25 1015.4
20260503231528 65 118 0.0 2.6 0.00 0.00 0.00 21 1015.2
20260503230028 65 118 0.0 6.1 0.00 0.00 0.00 17 1015.4
20260503224548 66 110 0.9 7.0 0.00 0.00 0.00 17 1015.6
20260503223043 67 109 1.7 6.1 0.00 0.00 0.00 16 1015.6
20260503221513 67 107 0.0 6.1 0.00 0.00 0.00 16 1015.6
20260503220010 66 137 1.7 7.8 0.00 0.00 0.00 15 1015.6
20260503214527 67 105 0.0 7.0 0.00 0.00 0.00 16 1015.8
20260503213041 66 43 1.7 9.6 0.00 0.00 0.00 17 1016.0
20260503211610 66 123 1.7 7.8 0.00 0.00 0.00 16 1016.1
20260503211502 66 123 2.6 7.8 0.00 0.00 0.00 16 1016.1
20260503210006 66 105 2.6 11.3 0.00 0.00 0.00 16 1016.1
20260503204529 67 114 1.7 8.7 0.00 0.00 0.00 15 1016.3
20260503203034 66 75 1.7 7.0 0.00 0.00 0.00 17 1016.3
20260503201556 65 109 1.7 11.3 0.00 0.00 0.00 17 1016.7
20260503200054 65 114 0.0 7.8 0.00 0.00 0.00 17 1016.9
20260503194511 65 103 1.7 10.4 0.00 0.00 0.00 17 1017.2
20260503193013 66 145 0.0 9.6 0.00 0.00 0.00 16 1017.3
20260503191525 64 109 1.7 13.0 0.00 0.00 0.00 19 1017.4
20260503190025 65 113 0.9 10.4 0.00 0.00 0.00 20 1017.8
20260503184537 65 134 2.6 10.4 0.00 0.00 0.00 18 1018.0
20260503183038 63 191 0.0 15.6 0.00 0.00 0.00 19 1018.3
20260503181615 62 159 1.7 7.8 0.00 0.00 0.00 20 1018.4
20260503180043 62 138 0.0 7.8 0.00 0.00 0.00 22 1018.6
20260503174558 62 72 0.0 7.0 0.00 0.00 0.00 22 1018.9
20260503173057 61 141 0.9 9.6 0.00 0.00 0.00 23 1019.0
20260503171521 61 141 0.0 8.7 0.00 0.00 0.00 23 1019.4